Hurghada, Egypt

7:39 PM EET on October 01, 2016 (GMT +0200)
Hurghada International

Weather History for HEGN - April, 2014

Change the Weather History Date:

Friday, April 25, 2014

  Actual Average Record
Temperature  
Mean Temperature 84 °F -  
Max Temperature 95 °F 82 °F 95 °F (2014)
Min Temperature 73 °F 66 °F 58 °F (2015)
Cooling Degree Days 19    
Growing Degree Days 34 (Base 50)    
Moisture  
Dew Point 70 °F    
Average Humidity 68    
Maximum Humidity 89    
Minimum Humidity 25    
Precipitation  
Precipitation 0.00 in - - ()
Sea Level Pressure  
Sea Level Pressure 29.74 in    
Wind  
Wind Speed 4 mph ()    
Max Wind Speed 14 mph    
Max Gust Speed -    
Visibility 6.1 miles    
Events      
Averages and records for this station are not official NWS values.
T = Trace of Precipitation, MM = Missing Value Source: Averaged Metar Reports

Daily Weather History Graph

Daily Weather History Graph

Search for Another Location

Airport or City:

Trip Planner

Search our weather history database for the weather conditions in past years. The results will help you decide how hot, cold, wet, or windy it might be!

Date:

Astronomy

Apr. 25, 2014 Rise Set
Actual Time 5:11 AM EET 6:14 PM EET
Civil Twilight 4:47 AM EET 6:38 PM EET
Nautical Twilight 4:18 AM EET 7:07 PM EET
Astronomical Twilight 3:49 AM EET 7:37 PM EET
Moon 2:23 AM EET (4/25) 2:35 PM EET (4/25)
Length of Visible Light 13h 51m
Length of Day
13h 03m
Waning Crescent, 17% of the Moon is Illuminated
Apr 25
Waning Crescent
Apr 29
New
May 7
First Quarter
May 14
Full
May 21
Last Quarter

Hourly Weather History & Observations

Time (EET) Temp. Heat Index Dew Point Humidity Pressure Visibility Wind Dir Wind Speed Gust Speed Precip Events Conditions
12:00 AM 77.0 °F - 69.8 °F 78% 29.80 in 6.2 mi ESE 5.8 mph - N/A   Scattered Clouds
1:00 AM 77.0 °F - 69.8 °F 78% 29.71 in 6.2 mi ESE 5.8 mph - N/A   Mostly Cloudy
2:00 AM 77 °F - 72 °F 79% 29.71 in 6 mi ESE 6.9 mph - -   Scattered Clouds
2:00 AM 77.0 °F - 71.6 °F 83% 29.71 in 6.2 mi ESE 6.9 mph - N/A   Mostly Cloudy
3:00 AM 75.2 °F - 69.8 °F 83% 29.71 in - ESE 5.8 mph - N/A   Clear
4:00 AM 75.2 °F - 68.0 °F 78% 29.71 in - Calm Calm - N/A   Clear
5:00 AM 74 °F - 68 °F 78% 29.73 in 6 mi Calm Calm - -   Mostly Cloudy
5:00 AM 73.4 °F - 68.0 °F 83% 29.71 in - Calm Calm - N/A   Clear
6:00 AM 73.4 °F - 69.8 °F 88% 29.74 in - Calm Calm - N/A   Clear
7:00 AM 78.8 °F - 75.2 °F 89% 29.74 in - Calm Calm - N/A   Clear
8:00 AM 81 °F - 75 °F 77% 29.78 in 6 mi Calm Calm - -   Mostly Cloudy
8:00 AM 80.6 °F 86.2 °F 75.2 °F 84% 29.77 in - Calm Calm - N/A   Clear
9:00 AM 87.8 °F 97.6 °F 75.2 °F 66% 29.77 in - Calm Calm - N/A   Clear
10:00 AM 91.4 °F 100.1 °F 73.4 °F 55% 29.77 in - ESE 5.8 mph - N/A   Clear
11:00 AM 93 °F - 61 °F 25% 29.78 in 6 mi ESE 8.1 mph - -   Scattered Clouds
11:00 AM 93.2 °F 93.3 °F 60.8 °F 34% 29.77 in 6.2 mi ESE 8.1 mph - N/A   Scattered Clouds
12:00 PM 95.0 °F 96.0 °F 62.6 °F 34% 29.74 in 6.2 mi ESE 10.4 mph - N/A   Scattered Clouds
1:00 PM 86.0 °F 90.4 °F 69.8 °F 58% 29.74 in 6.2 mi ESE 13.8 mph - N/A   Scattered Clouds
2:00 PM 91 °F - 67 °F 35% 29.75 in 6 mi East 6.9 mph - -   Mostly Cloudy
2:00 PM 91.4 °F 94.0 °F 66.2 °F 43% 29.74 in 6.2 mi East 6.9 mph - N/A   Mostly Cloudy
3:00 PM 93.2 °F 96.2 °F 66.2 °F 41% 29.71 in 6.2 mi ESE 8.1 mph - N/A   Mostly Cloudy
4:00 PM 86.0 °F 91.8 °F 71.6 °F 62% 29.71 in 6.2 mi East 6.9 mph - N/A   Mostly Cloudy
5:00 PM 85 °F - 70 °F 53% 29.72 in 6 mi ESE 5.8 mph - -   Mostly Cloudy
5:00 PM 84.2 °F 88.4 °F 69.8 °F 62% 29.71 in 6.2 mi ESE 5.8 mph - N/A   Mostly Cloudy
6:00 PM 80.6 °F 84.6 °F 71.6 °F 74% 29.71 in 6.2 mi East 6.9 mph - N/A   Mostly Cloudy
7:00 PM 78.8 °F - 73.4 °F 83% 29.74 in 6.2 mi SE 8.1 mph - N/A   Mostly Cloudy
8:00 PM 79 °F - 74 °F 79% 29.75 in 6 mi South 4.6 mph - -   Partly Cloudy
8:00 PM 78.8 °F - 73.4 °F 83% 29.74 in 6.2 mi South 4.6 mph - N/A   Scattered Clouds
9:00 PM 78.8 °F - 71.6 °F 78% 29.74 in 6.2 mi North 4.6 mph - N/A   Scattered Clouds
10:00 PM 78.8 °F - 71.6 °F 78% 29.74 in 6.2 mi Calm Calm - N/A   Scattered Clouds
11:00 PM 78 °F - 71 °F 73% 29.75 in 6 mi Calm Calm - -   Partly Cloudy
11:00 PM 78.8 °F - 71.6 °F 78% 29.74 in 6.2 mi Calm Calm - N/A   Scattered Clouds